2016 AL65

Initial reported observation by Mt. Lemmon Survey on 2016-01-03.
(Discoverer will be defined when the object is numbered. See this note on how discoverers are determined.)

Orbit

Orbit type: Amor
Near-Earth Object
One opposition object seen prior.

Note: WebGL enabled browser required.

epoch2019-04-27.0
epoch JD2458600.5
perihelion date2019-09-30.41151
perihelion JD2458756.91151
argument of perihelion (°)17.73670
ascending node (°)107.82244
inclination (°)8.43923
eccentricity0.5527755
perihelion distance (AU)1.0686829
Tisserand w.r.t. Jupiter3.3
ΔV w.r.t. Earth (km/sec)6.9
semimajor axis (AU)2.3895894
mean anomaly (°)318.26623
mean daily motion (°/day)0.26682030
aphelion distance (AU)3.710
period (years)3.69
P-vector [x]-0.57840259
P-vector [y]0.72952794
P-vector [z]0.36501977
Q-vector [x]-0.80369741
Q-vector [y]-0.58626215
Q-vector [z]-0.10181927
absolute magnitude23.0
phase slope0.15
uncertainty4
referenceMPO 386960
observations used59
oppositions1
arc length (days)91
first opposition used2016
last opposition used2016
residual rms (arc-secs)0.40
perturbers coarse indicatorM-v
perturbers precise indicator003Eh
first observation date used2016-01-03.0
last observation date used2016-04-03.0
computer nameMPCW
JD of orbit computation2457598.620247
perihelion JD uncertainty (days)5.9494E-05
argument of perihelion uncertainty (°)4.7053E-05
ascending node uncertainty (°)6.3822E-05
inclination uncertainty (°)1.1949E-04
eccentricity uncertainty 1.1593E-05
perihelion distance uncertainty (AU)1.4843E-06
Minimum Orbit Intersection Distances (in AU)
for orbit epoch: 2458600.5, reference: MPO386960
Mercury0.73794
Venus0.3502
Earth0.09239
Mars0.18316
Jupiter1.39331
Saturn6.25582
Uranus15.8787
Neptune26.3657

Observations

60 total observations over interval: 2016 01 03.46017 – 2016 04 03.278143
These data are available for download (format description).

Date (UT) J2000 RA J2000 Dec Magn Location Ref
2016 01 03.46017 09 26 35.79 +13 13 23.0 19.7 V G96 – Mt. Lemmon Survey MPS 668604
2016 01 03.46703 09 26 39.33 +13 13 38.5 19.4 V G96 – Mt. Lemmon Survey MPS 668604
2016 01 03.47291 09 26 42.38 +13 13 52.1 19.6 V G96 – Mt. Lemmon Survey MPS 668604
2016 01 03.47878 09 26 45.41 +13 14 05.6 20.1 V G96 – Mt. Lemmon Survey MPS 668604
2016 01 03.53804 09 27 16.34 +13 16 21.9 20.4 V I52 – Steward Observatory, Mt. Lemmon Station MPS 668604
2016 01 03.54652 09 27 20.65 +13 16 40.7 20.4 V I52 – Steward Observatory, Mt. Lemmon Station MPS 668604
2016 01 03.54817 09 27 21.54 +13 16 44.1 20.1 V I52 – Steward Observatory, Mt. Lemmon Station MPS 668604
2016 01 03.55944 09 27 27.42 +13 17 10.2 19.7 V G96 – Mt. Lemmon Survey MPS 668604
2016 01 03.55982 09 27 27.66 +13 17 10.7 20.4 V G96 – Mt. Lemmon Survey MPS 668604
2016 01 03.56020 09 27 27.81 +13 17 11.4 19.0 V G96 – Mt. Lemmon Survey MPS 668604
2016 01 03.56059 09 27 28.05 +13 17 12.7 20.2 V G96 – Mt. Lemmon Survey MPS 668604
2016 01 05.36934 09 44 08.07 +14 27 39.0 20.2 R H36 – Sandlot Observatory, Scranton MPS 668604
2016 01 05.38618 09 44 17.12 +14 28 17.9 19.9 R H36 – Sandlot Observatory, Scranton MPS 668604
2016 01 05.39460 09 44 21.66 +14 28 37.6 19.8 R H36 – Sandlot Observatory, Scranton MPS 668604
2016 01 05.407360 09 44 27.94 +14 29 06.7 19.9 V H21 – Astronomical Research Observatory, Westfield MPS 668604
2016 01 05.412405 09 44 30.66 +14 29 18.3 19.8 V H21 – Astronomical Research Observatory, Westfield MPS 668604
2016 01 05.417551 09 44 33.43 +14 29 30.7 19.8 V H21 – Astronomical Research Observatory, Westfield MPS 668604
2016 01 08.12317 10 10 16.21 +16 13 01.9   J95 – Great Shefford MPS 668604
2016 01 08.12850 10 10 18.53 +16 13 15.1 19.8 V 033 – Karl Schwarzschild Observatory, Tautenburg MPS 668604
2016 01 08.13323 10 10 21.15 +16 13 25.4 19.7 V 033 – Karl Schwarzschild Observatory, Tautenburg MPS 668604
2016 01 08.14104 10 10 26.21 +16 13 41.7   J95 – Great Shefford MPS 668604
2016 01 08.14957 10 10 30.96 +16 14 01.1 19.9 R J95 – Great Shefford MPS 668604
2016 01 10.42937 10 32 29.20 +17 36 40.6 19.8 R H36 – Sandlot Observatory, Scranton MPS 668604
2016 01 10.45005 10 32 40.58 +17 37 24.5 19.2 R H36 – Sandlot Observatory, Scranton MPS 668604
2016 01 10.46282 10 32 48.59 +17 37 59.1 20.4 R 926 – Tenagra II Observatory, Nogales MPS 668604
2016 01 10.46863 10 32 51.87 +17 38 11.5 19.9 R 926 – Tenagra II Observatory, Nogales MPS 668604
2016 01 10.47443 10 32 55.04 +17 38 23.3 20.1 R 926 – Tenagra II Observatory, Nogales MPS 668604
2016 01 11.51815 10 42 55.67 +18 13 44.8 20.8 R 926 – Tenagra II Observatory, Nogales MPS 668604
2016 01 11.52360 10 42 58.65 +18 13 55.7 20.6 R 926 – Tenagra II Observatory, Nogales MPS 668604
2016 01 11.52905 10 43 01.64 +18 14 05.3 20.4 R 926 – Tenagra II Observatory, Nogales MPS 668604
2016 01 13.445917 11 01 12.77 +19 14 16.2 20.3 V H21 – Astronomical Research Observatory, Westfield MPS 668604
2016 01 13.451308 11 01 15.68 +19 14 25.9 20.2 V H21 – Astronomical Research Observatory, Westfield MPS 668604
2016 01 13.456771 11 01 18.62 +19 14 35.7 20.4 V H21 – Astronomical Research Observatory, Westfield MPS 668604
2016 01 13.52635 11 01 57.41 +19 16 49.3 20.6 R 926 – Tenagra II Observatory, Nogales MPS 721533
2016 01 13.53393 11 02 01.47 +19 17 01.2 21.0 R 926 – Tenagra II Observatory, Nogales MPS 721533
2016 01 13.54149 11 02 05.59 +19 17 13.7 21.0 R 926 – Tenagra II Observatory, Nogales MPS 721533
2016 01 14.426131 11 10 19.83 +19 42 35.6 20.1 V H21 – Astronomical Research Observatory, Westfield MPS 679326
2016 01 14.432601 11 10 23.25 +19 42 46.2 20.4 V H21 – Astronomical Research Observatory, Westfield MPS 679326
2016 01 14.436985 11 10 25.57 +19 42 53.7 20.2 V H21 – Astronomical Research Observatory, Westfield MPS 679326
2016 02 05.51365 13 29 54.15 +24 10 43.6 20.7 V I52 – Steward Observatory, Mt. Lemmon Station MPS 675445
2016 02 05.52078 13 29 55.49 +24 10 45.6 20.9 V I52 – Steward Observatory, Mt. Lemmon Station MPS 675445
2016 02 05.52612 13 29 56.53 +24 10 46.1 21.3 V I52 – Steward Observatory, Mt. Lemmon Station MPS 675445
2016 02 05.52966 13 29 57.19 +24 10 46.8 21.2 V I52 – Steward Observatory, Mt. Lemmon Station MPS 675445
2016 02 19.43592 14 00 21.96 +24 40 18.0   711 – McDonald Observatory, Fort Davis MPS 682679
2016 02 19.44094 14 00 22.24 +24 40 18.2   711 – McDonald Observatory, Fort Davis MPS 682679
2016 02 19.44593 14 00 22.51 +24 40 18.7   711 – McDonald Observatory, Fort Davis MPS 682679
2016 03 06.368657 14 05 03.02 +24 37 22.9 22.1 V H21 – Astronomical Research Observatory, Westfield MPS 690304
2016 03 06.374956 14 05 02.79 +24 37 22.1 22.1 V H21 – Astronomical Research Observatory, Westfield MPS 690304
2016 03 06.380848 14 05 02.58 +24 37 21.6 22.2 V H21 – Astronomical Research Observatory, Westfield MPS 690304
2016 03 06.384048 14 05 02.44 +24 37 21.3 22.3 V H21 – Astronomical Research Observatory, Westfield MPS 690304
2016 03 06.390332 14 05 02.23 +24 37 20.6 22.2 V H21 – Astronomical Research Observatory, Westfield MPS 690304
2016 03 06.397221 14 05 01.96 +24 37 20.0 22.2 V H21 – Astronomical Research Observatory, Westfield MPS 690304
2016 04 01.294910 13 40 05.80 +21 44 52.0 23.1 V H21 – Astronomical Research Observatory, Westfield MPS 696045
2016 04 01.308495 13 40 04.73 +21 44 42.6 22.7 V H21 – Astronomical Research Observatory, Westfield MPS 696045
2016 04 01.325733 13 40 03.42 +21 44 30.7 23.0 V H21 – Astronomical Research Observatory, Westfield MPS 696045
2016 04 01.330195 13 40 03.10 +21 44 27.8 23.0 V H21 – Astronomical Research Observatory, Westfield MPS 696045
2016 04 03.241437 13 37 52.88 +21 21 40.0 23.1 V H21 – Astronomical Research Observatory, Westfield MPS 698871
2016 04 03.252996 13 37 52.02 +21 21 31.9 22.8 V H21 – Astronomical Research Observatory, Westfield MPS 698871
2016 04 03.272059 13 37 50.59 +21 21 17.9 22.7 V H21 – Astronomical Research Observatory, Westfield MPS 698871
2016 04 03.278143 13 37 50.11 +21 21 13.6 23.0 V H21 – Astronomical Research Observatory, Westfield MPS 698871